Location: Clarion
(42.7316°N, 93.7330°W)
Time: 08:33:37
(UTC+00:00)

ARGOS - Pass Details

Date: 22 April 2026
Orbit: 817 x 833 km, 98.5° (Epoch: 16 May)

Event Time Altitude Azimuth Distance (km) Brightness Sun altitude
Rises 09:54:24 0° 14° (NNE) 3,373 7.1 -15.4°
Reaches altitude 10° 09:56:46 10° 15° (NNE) 2,433 6.3 -15.0°
Maximum altitude 10:02:10 82° 103° (ESE) 834 3.2 -14.2°
Drops below altitude 10° 10:07:31 10° 192° (SSW) 2,407 5.2 -13.3°
Enters shadow 10:08:17 - 192° (SSW) 2,714 5.4 -13.2°
